Weather in Minvoul

Gabon     2°09′10″N   12°08′18″E
temp.,
°C
wind,
m/s
gust,
m/s
humid.,
%
clouds,
%
prec.,
mm/h
press.,
hPa
HPBL,
m
19 april, mon
mon1901:00+21w1399100 13.4 101289
04:00+21nnw1299100 0.1 101173
07:00+21nnw1199100 2.5 101375
10:00+27sw1269100 0.1 1013611
13:00+23sse1395100 2.8 1012158
16:00+24wsw1291100 0.1 1009231
19:00+22sw119598 0.1 101116
22:00+21s119891 0.0 101315
20 april, tue
tue2001:00+20ssw1199100 0.0 101237
04:00+20ssw169899 0.0 1011228
07:00+21s1595100 0.0 1013198
10:00+28ssw1159100 0.0 1013971
13:00+31s2246100 0.0 10091670
16:00+31wsw114846 0.0 10071318
19:00+24ssw117625 0.3 100823
22:00+22wsw019190 0.8 101115
21 april, wed
wed2101:00+21ssw1195100 1.4 101019
04:00+21e119795 0.3 101014
07:00+21e1295100 0.3 101279
10:00+22ene119094 0.1 101270
13:00+23ne138699 0.1 1011157
16:00+28e236482 0.0 1008630
19:00+22ese1289100 0.1 100939
22:00+22ene1494100 0.1 1012126
22 april, thu
thu2201:00+20s0194100 0.3 101129
04:00+20e0097100 0.4 101116
07:00+20nw0196100 0.6 101341
10:00+25wsw1276100 0.1 1014417
13:00+31w1148100 0.1 10101563
16:00+31nnw114592 0.0 10071793
19:00+24ssw1174100 0.0 100923
22:00+21w119887 3.8 101217
23 april, fri
fri2301:00+21wsw119994 3.8 101126
04:00+21w0099100 3.9 101129
07:00+21sw1399100 3.9 1011124
10:00+27se1267100 0.0 1012597
13:00+32sse224672 0.0 10091785
16:00+27sw2565100 0.0 1006163
19:00+23sw269070 1.4 1008112
22:00+21sw169841 4.8 1011157